Klawock, AK

12:16 AM AKST on February 24, 2017 (GMT -0900)
Klawock

Weather History for PAKW - November, 2012

Change the Weather History Date:

Saturday, November 3, 2012

  Actual Average Record
Temperature  
Mean Temperature 42 °F -  
Max Temperature 48 °F 45 °F 59 °F (2010)
Min Temperature 37 °F 34 °F 26 °F (2003)
Degree Days  
Heating Degree Days 24    
Moisture  
Dew Point 41 °F    
Average Humidity 87    
Maximum Humidity 97    
Minimum Humidity 74    
Precipitation  
Precipitation 0.38 in - - ()
Sea Level Pressure  
Sea Level Pressure 29.60 in    
Wind  
Wind Speed 3 mph (South)    
Max Wind Speed 10 mph    
Max Gust Speed 18 mph    
Visibility 9 miles    
Events Rain    
Averages and records for this station are not official NWS values.
T = Trace of Precipitation, MM = Missing Value Source: NWS Daily Summary

Daily Weather History Graph

Daily Weather History Graph

Search for Another Location

Airport or City:

Trip Planner

Search our weather history database for the weather conditions in past years. The results will help you decide how hot, cold, wet, or windy it might be!

Date:

Astronomy

Nov. 03, 2012 Rise Set
Actual Time 8:03 AM AKDT 5:07 PM AKDT
Civil Twilight 7:23 AM AKDT 5:47 PM AKDT
Nautical Twilight 6:39 AM AKDT 6:30 PM AKDT
Astronomical Twilight 5:57 AM AKDT 7:13 PM AKDT
Moon 8:38 PM AKDT (11/3) 12:31 PM AKDT (11/3)
Length of Visible Light 10h 23m
Length of Day
9h 03m
Waning Gibbous, 79% of the Moon is Illuminated
Nov 3
Waning Gibbous
Nov 6
Last Quarter
Nov 13
New
Nov 20
First Quarter
Nov 28
Full

Hourly Weather History & Observations

Time (AKDT) Temp. Windchill Dew Point Humidity Pressure Visibility Wind Dir Wind Speed Gust Speed Precip Events Conditions
12:53 AM 39.0 °F - 37.0 °F 93% 29.58 in 10.0 mi Calm Calm - N/A   Scattered Clouds
1:53 AM 39.0 °F - 37.0 °F 93% 29.58 in 10.0 mi Calm Calm - N/A   Clear
2:53 AM 37.9 °F 35.5 °F 37.0 °F 97% 29.57 in 10.0 mi Variable 3.5 mph - N/A   Partly Cloudy
3:53 AM 39.9 °F 37.8 °F 37.9 °F 93% 29.55 in 10.0 mi North 3.5 mph - N/A   Overcast
4:53 AM 42.1 °F - 39.9 °F 92% 29.53 in 10.0 mi Calm Calm - 0.02 in Rain Light Rain
5:53 AM 42.1 °F - 41.0 °F 96% 29.53 in 6.0 mi Calm Calm - 0.04 in Rain Light Rain
6:15 AM 42.8 °F - 41.0 °F 93% 29.53 in 3.0 mi Calm Calm - 0.03 in Rain Rain
6:53 AM 43.0 °F 41.3 °F 41.0 °F 93% 29.53 in 5.0 mi Variable 3.5 mph - 0.11 in Rain Rain
7:51 AM 42.8 °F - 41.0 °F 93% 29.53 in 8.0 mi Calm Calm - 0.06 in Rain Light Rain
7:53 AM 43.0 °F - 41.0 °F 93% 29.53 in 7.0 mi Calm Calm - 0.06 in Rain Light Rain
8:53 AM 43.0 °F - 41.0 °F 93% 29.53 in 10.0 mi Calm Calm - 0.01 in   Overcast
9:53 AM 45.0 °F - 41.0 °F 86% 29.55 in 10.0 mi Calm Calm - N/A   Overcast
10:53 AM 45.0 °F 41.8 °F 42.1 °F 90% 29.56 in 5.0 mi Variable 5.8 mph - 0.02 in Rain Light Rain
11:39 AM 46.4 °F 44.3 °F 42.8 °F 87% 29.56 in 10.0 mi Variable 4.6 mph - 0.00 in   Overcast
11:53 AM 46.9 °F - 43.0 °F 86% 29.57 in 10.0 mi Variable 3.5 mph - 0.00 in   Overcast
12:36 PM 44.6 °F 39.2 °F 41.0 °F 87% 29.58 in 4.0 mi SSW 10.4 mph 18.4 mph 0.03 in Rain Rain
12:53 PM 46.0 °F 41.0 °F 41.0 °F 83% 29.59 in 10.0 mi South 10.4 mph 18.4 mph 0.04 in Rain Light Rain
1:02 PM 46.4 °F 43.5 °F 42.8 °F 87% 29.59 in 10.0 mi South 5.8 mph 18.4 mph N/A   Mostly Cloudy
1:53 PM 46.9 °F - 41.0 °F 80% 29.61 in 10.0 mi South 8.1 mph - 0.00 in   Scattered Clouds
2:53 PM 46.0 °F 41.9 °F 41.0 °F 83% 29.63 in 9.0 mi South 8.1 mph - 0.00 in Rain Light Rain
3:53 PM 46.0 °F 43.9 °F 39.9 °F 79% 29.63 in 10.0 mi Variable 4.6 mph - 0.01 in Rain Light Rain
4:53 PM 46.9 °F - 39.0 °F 74% 29.64 in 10.0 mi South 8.1 mph - 0.00 in   Mostly Cloudy
5:53 PM 46.0 °F 41.9 °F 39.0 °F 76% 29.65 in 10.0 mi SSE 8.1 mph - N/A   Overcast
6:53 PM 46.0 °F 41.9 °F 39.9 °F 79% 29.68 in 10.0 mi SSW 8.1 mph - 0.01 in Rain Light Rain
7:12 PM 46.4 °F 44.3 °F 39.2 °F 76% 29.67 in 10.0 mi Variable 4.6 mph - 0.00 in Rain Light Rain
7:45 PM 46.4 °F 44.3 °F 41.0 °F 81% 29.67 in 10.0 mi Variable 4.6 mph - 0.00 in Rain Light Rain
7:53 PM 46.0 °F 43.1 °F 41.0 °F 83% 29.68 in 10.0 mi Variable 5.8 mph - 0.01 in Rain Light Rain
8:53 PM 45.0 °F 41.8 °F 41.0 °F 86% 29.69 in 10.0 mi Variable 5.8 mph - 0.02 in Rain Light Rain
9:53 PM 46.0 °F 43.1 °F 41.0 °F 83% 29.71 in 10.0 mi Variable 5.8 mph 17.3 mph 0.01 in Rain Light Rain
10:53 PM 45.0 °F 42.6 °F 42.1 °F 90% 29.71 in 10.0 mi Variable 4.6 mph - 0.02 in Rain Light Rain
11:53 PM 44.1 °F - 42.1 °F 93% 29.72 in 8.0 mi Calm Calm - 0.00 in Rain Light Rain